Location: Aletheia Temple Church
(32.7174°N, 97.2485°W)
Time: 19:38:30
(UTC+00:00)

ACS3 Solar Sail - Visible Passes

Search period start: 06 October 2024 00:00
Search period end: 16 October 2024 00:00
Orbit: 961 x 1037 km, 97.4° (Epoch: 06 October)

Date Brightness Start Highest point End Pass type
(mag) Time Alt. Az. Time Alt. Az. Time Alt. Az.
06 Oct 3.2 01:17:38 19° ENE 01:17:53 19° ENE 01:22:08 10° NNE visible
06 Oct 2.7 03:02:48 47° NW 03:02:48 47° NW 03:07:32 10° NNW visible
07 Oct 2.5 01:49:59 35° ENE 01:49:59 35° ENE 01:55:05 10° N visible
07 Oct 3.7 03:35:09 26° WNW 03:35:09 26° WNW 03:38:47 10° NW visible
08 Oct 2.1 02:22:19 54° NNE 02:22:19 54° NNE 02:27:22 10° N visible
08 Oct 4.4 04:07:29 13° WNW 04:07:29 13° WNW 04:08:59 10° NW visible
09 Oct 3.3 01:09:29 17° ENE 01:09:35 17° ENE 01:13:24 10° NNE visible
09 Oct 2.6 02:54:39 47° NW 02:54:39 47° NW 02:59:12 10° NNW visible
10 Oct 2.7 01:41:48 31° ENE 01:41:48 31° ENE 01:46:30 10° N visible
10 Oct 3.6 03:26:58 28° WNW 03:26:58 28° WNW 03:30:30 10° NNW visible
11 Oct 2.3 02:14:06 48° NNE 02:14:06 48° NNE 02:18:50 10° N visible
11 Oct 4.4 03:59:16 14° WNW 03:59:16 14° WNW 04:00:55 10° NW visible
12 Oct 3.4 01:01:13 15° ENE 01:01:13 15° ENE 01:04:27 10° NNE visible
12 Oct 2.6 02:46:23 46° NNW 02:46:23 46° NNW 02:50:42 10° NNW visible
13 Oct 2.8 01:33:30 27° NE 01:33:30 27° NE 01:37:46 10° NNE visible
13 Oct 3.5 03:18:40 28° NW 03:18:40 28° NW 03:22:04 10° NNW visible
14 Oct 2.4 02:05:46 42° NNE 02:05:46 42° NNE 02:10:10 10° N visible
14 Oct 4.3 03:50:56 15° WNW 03:50:56 15° WNW 03:52:40 10° NW visible
15 Oct 3.5 00:52:52 13° ENE 00:52:52 13° ENE 00:55:15 10° NE visible
15 Oct 2.7 02:38:01 43° NNW 02:38:01 43° NNW 02:42:04 10° NNW visible
